GFSSE_700_rhum_159.txt.gz
RH
40 46 42 34 26 16 13 9 7 6 6 5 5 5 5 5 6 8 11 13 14 15 16 19 23 29 30 28 24 20 23 26 27 26 30 36 52 54 57 57 59 67 74
42 50 53 32 29 18 12 10 8 8 7 6 5 5 5 6 6 8 13 16 17 17 18 19 20 20 23 20 18 15 16 16 19 27 33 43 57 55 54 52 61 72 78
44 46 57 52 33 18 12 10 10 8 8 7 6 6 5 6 6 7 12 17 19 18 19 16 17 21 18 16 16 20 23 24 27 31 41 55 66 59 47 61 80 81 81
37 43 54 53 37 19 11 11 11 10 9 8 7 6 6 6 6 8 10 13 16 17 15 14 16 15 16 21 23 21 22 28 34 38 52 68 70 51 60 77 81 85 80
36 42 48 42 35 19 11 11 12 11 10 9 8 8 7 6 6 7 8 10 12 14 13 13 14 27 25 20 18 23 30 39 42 58 80 77 62 56 66 72 84 89 82
39 48 41 37 34 16 11 13 13 12 11 10 10 9 8 7 7 8 8 9 11 13 13 13 16 21 17 16 16 23 35 44 45 73 72 71 67 66 67 84 84 84 95
24 40 50 38 28 14 12 15 15 14 13 12 11 10 9 8 8 8 9 10 11 13 14 14 19 19 17 17 16 24 44 46 52 59 74 72 71 77 75 75 75 73 86
26 26 34 52 44 18 13 16 17 17 16 15 13 13 12 10 9 9 9 10 11 13 14 14 19 18 19 20 19 23 45 49 52 82 78 84 74 73 76 68 74 82 96
25 22 22 27 39 44 26 17 18 18 18 17 16 15 14 12 11 11 11 11 12 13 14 16 21 19 20 22 23 24 34 46 52 72 87 68 64 72 75 77 76 83 45
28 28 26 21 22 34 40 27 24 20 18 17 18 17 17 14 13 14 15 13 13 14 15 16 21 22 25 26 25 25 28 36 50 68 72 55 60 70 67 78 77 71 50
26 26 26 25 25 23 31 42 30 22 25 21 17 17 18 17 16 16 17 16 15 15 16 17 21 24 27 26 25 25 27 33 38 45 45 55 49 56 68 69 64 67 59
29 28 27 26 29 29 29 36 46 35 20 22 27 20 17 17 18 17 17 18 17 17 16 17 20 24 28 26 25 26 28 29 29 34 40 40 42 46 56 69 79 77 69
27 26 29 36 34 36 42 47 47 53 48 29 23 25 25 19 17 18 18 18 18 18 18 19 20 25 30 28 26 24 27 30 28 30 32 42 44 52 52 57 75 70 79
22 22 28 38 42 42 40 39 56 55 61 74 58 32 25 25 20 18 18 19 20 19 19 19 20 24 28 30 28 24 26 28 31 30 30 31 38 46 50 53 60 82 90
26 30 31 32 34 39 42 40 39 45 71 59 68 73 60 28 21 22 21 20 20 22 21 20 21 22 25 30 32 29 27 31 32 34 32 31 32 34 43 52 56 86 91
17 21 27 36 39 41 42 45 44 43 44 71 72 64 71 76 40 24 23 23 22 20 22 22 22 24 26 28 32 35 31 31 34 35 37 35 35 35 36 42 49 60 84
15 16 17 19 23 31 37 39 42 43 44 43 41 45 72 74 86 56 41 43 27 23 31 35 26 24 24 26 26 30 30 30 33 34 39 39 38 38 37 38 44 49 63
15 16 18 21 15 11 10 10 13 22 36 43 43 41 40 57 71 84 85 42 47 36 36 42 33 31 27 26 26 29 33 32 32 35 38 42 41 42 41 41 40 45 50
16 19 21 20 12 13 12 12 11 9 6 7 28 40 39 40 46 50 70 89 67 58 41 44 44 41 36 33 31 35 36 38 34 36 38 39 44 45 46 49 44 42 44
27 27 25 19 18 18 17 16 14 12 10 6 5 6 17 33 35 39 50 74 97 71 67 46 52 50 44 42 51 52 50 46 41 39 40 42 44 45 49 49 51 48 48
32 31 30 25 21 19 19 17 16 13 11 9 6 5 6 6 14 26 35 50 70 93 97 74 61 55 52 51 58 68 67 64 62 56 47 54 50 47 45 52 53 54 54
29 30 29 27 24 23 23 20 18 14 13 11 5 4 4 5 7 10 20 27 68 82 96 84 83 87 74 71 67 79 81 79 79 80 70 65 63 60 61 53 56 61 58
36 34 31 27 27 27 22 18 16 14 12 7 2 2 3 3 5 7 10 14 24 36 88 93 84 73 92 75 91 92 97 93 84 82 87 87 92 85 84 78 68 69 68
38 35 34 34 25 20 16 11 7 8 8 4 2 2 3 4 3 4 6 11 10 22 33 67 91 72 77 78 91 93 97 97 95 94 91 98 100 96 99 91 90 84 77
39 32 28 22 16 12 7 5 4 5 6 6 6 6 5 5 7 7 8 8 10 12 15 32 38 39 78 91 89 99 90 88 100 100 97 97 96 93 91 98 82 88 88
28 25 22 16 7 5 5 8 7 6 6 7 7 8 8 8 10 12 13 14 11 13 14 16 39 53 80 96 100 98 99 99 99 97 100 98 93 81 91 100 96 80 92

GFSSE_700_rhum_162.txt.gz
RH
48 54 51 45 34 24 16 11 9 8 8 7 6 6 5 5 6 6 8 10 14 16 18 20 21 26 28 23 20 21 20 25 23 23 25 28 38 53 52 51 49 60 70
56 58 62 48 38 30 17 11 10 10 8 8 8 7 6 6 6 6 7 9 12 14 16 17 16 17 19 18 17 17 18 21 23 27 27 35 53 56 54 48 69 70 77
49 54 57 64 54 35 18 11 10 11 10 9 8 8 7 7 6 6 7 8 9 11 13 13 13 15 14 13 18 21 19 21 27 32 37 50 67 61 53 68 75 81 77
38 49 60 66 57 36 18 11 11 12 11 10 9 9 8 7 7 7 7 9 10 11 13 12 11 18 26 16 14 14 19 31 36 37 67 68 68 56 66 66 80 82 80
45 54 59 62 50 36 18 13 12 14 12 12 11 10 9 8 8 8 7 8 9 10 12 11 12 17 18 14 14 16 22 36 39 48 72 74 66 64 64 70 82 88 85
29 44 52 54 51 34 21 17 16 15 14 14 13 12 11 10 9 9 8 9 9 10 12 12 13 16 17 15 15 16 28 39 43 53 68 68 71 71 68 73 75 79 90
21 28 36 38 38 34 18 15 17 18 16 15 15 14 13 12 11 10 10 10 10 11 12 12 13 16 17 17 18 19 32 43 48 59 68 77 79 78 73 68 72 75 82
27 26 26 30 38 35 26 14 15 18 19 17 16 16 15 14 13 12 12 12 11 12 13 14 15 18 19 20 21 22 25 41 48 69 74 81 67 67 80 70 65 79 91
27 28 28 28 27 33 40 30 15 17 19 19 18 16 16 16 15 14 14 14 14 14 14 15 16 19 21 24 24 27 26 29 48 63 80 76 56 71 73 73 71 73 49
29 28 27 27 28 29 31 40 39 18 19 20 19 18 17 17 16 16 16 16 16 16 16 18 18 22 23 27 26 28 28 31 33 58 68 56 56 63 66 71 76 67 50
31 30 30 29 28 28 30 34 35 49 31 21 21 20 18 18 18 18 17 17 18 19 18 18 19 19 23 27 27 28 29 29 30 34 37 46 42 44 58 66 71 65 64
26 26 25 25 27 30 37 40 43 43 54 49 26 24 22 24 21 19 19 19 19 19 20 20 20 21 23 26 27 28 30 30 29 33 36 38 39 47 43 45 59 75 75
22 20 23 28 34 38 39 39 41 46 64 63 62 49 30 32 40 34 21 21 23 23 21 22 24 24 24 26 27 28 29 30 31 31 32 34 37 40 45 48 45 60 71
17 20 25 28 32 34 37 39 38 42 44 44 73 73 76 61 34 34 24 24 55 34 24 26 26 29 30 28 27 26 29 31 31 32 33 34 32 34 37 44 48 54 81
16 16 17 18 22 29 35 36 37 38 40 41 43 56 78 75 77 74 54 26 24 39 32 24 36 30 29 32 29 27 28 31 35 34 35 36 36 36 36 40 45 48 66
15 16 15 16 17 18 18 16 17 22 28 31 34 36 38 42 62 82 82 82 51 24 25 30 31 50 32 32 32 30 27 29 32 37 37 38 40 40 40 39 48 48 52
14 15 16 18 18 19 14 10 9 11 10 9 8 8 12 24 33 44 58 78 93 82 47 30 50 63 51 44 37 35 30 29 28 30 38 39 41 43 43 43 41 45 53
14 14 14 17 20 22 17 14 14 14 16 14 13 10 8 6 5 12 30 52 74 79 90 68 54 37 41 43 42 37 38 35 33 29 32 37 40 42 44 46 46 44 46
21 20 21 22 22 22 21 20 19 18 18 18 18 15 12 10 7 5 5 12 32 44 64 90 84 68 45 37 39 38 39 45 38 38 32 34 38 42 45 47 50 49 46
27 28 29 31 29 27 27 26 24 23 23 21 20 18 14 13 10 6 5 4 5 14 37 62 88 98 79 58 41 45 43 51 50 43 39 37 37 39 44 48 51 52 51
31 31 34 35 34 30 29 27 26 26 25 22 20 16 14 12 10 4 3 4 4 5 7 27 61 92 99 88 62 49 55 55 54 54 52 47 37 39 41 49 50 53 53
40 38 38 35 33 32 31 30 29 28 25 22 19 14 11 7 4 2 2 2 3 5 6 6 23 45 72 93 97 87 70 68 70 72 62 61 45 45 44 50 55 51 59
48 44 40 39 38 37 34 30 25 20 16 13 10 8 5 4 3 4 3 3 2 2 4 6 6 19 42 82 94 100 99 99 89 70 71 66 68 66 60 56 69 65 65
50 47 42 37 32 28 24 21 16 12 8 7 6 7 7 7 7 8 7 6 4 3 3 4 6 8 10 34 52 100 99 100 97 99 88 75 77 81 82 76 78 77 92
46 36 30 25 21 17 15 11 6 5 6 7 8 9 10 10 11 10 9 9 10 7 6 5 5 6 10 9 16 46 78 100 98 97 100 99 92 95 87 91 97 100 90
38 30 24 18 12 9 7 6 6 7 9 9 11 14 15 16 16 24 28 25 20 19 21 18 14 7 8 10 11 13 26 64 74 69 92 96 98 98 97 97 99 100 98

GFSSE_700_rhum_165.txt.gz
RH
61 60 55 44 37 31 22 13 11 11 10 10 9 8 7 7 6 6 7 7 8 10 12 13 13 12 13 16 17 14 13 15 18 22 24 26 36 54 53 50 46 56 65
61 67 70 54 42 35 26 14 12 12 12 11 10 9 9 8 7 7 7 7 9 10 12 13 12 12 13 12 13 16 18 17 19 22 26 34 51 58 52 54 63 70 76
69 76 77 68 52 39 28 16 13 13 13 12 11 10 10 9 9 8 7 7 8 10 11 12 11 11 30 15 17 15 16 20 28 32 42 65 62 60 59 63 62 70 73
41 57 71 75 57 42 30 19 14 14 14 13 12 12 11 10 10 10 9 8 9 10 11 11 11 12 19 17 14 16 19 23 34 37 66 68 63 58 61 59 70 75 76
27 31 38 56 61 46 34 18 14 16 15 14 14 13 12 12 12 11 11 10 10 11 11 11 12 13 17 16 16 18 21 30 40 45 67 70 69 66 61 62 69 72 78
24 31 44 48 53 47 36 22 13 14 16 16 15 15 14 14 12 12 12 12 12 14 13 13 13 15 19 18 19 20 24 37 45 50 60 68 76 74 66 64 62 66 80
28 29 30 45 49 44 36 24 14 14 16 17 16 16 16 15 15 13 14 14 14 15 16 16 15 17 21 20 22 22 23 36 48 55 65 71 74 69 74 71 63 67 76
30 30 30 31 32 34 44 47 32 17 18 18 18 17 17 16 16 15 14 14 16 17 18 17 16 17 21 22 24 24 25 28 46 57 74 78 70 65 76 80 69 71 74
31 33 35 35 39 41 39 37 41 50 33 23 21 19 18 18 17 17 16 15 16 17 18 19 18 18 22 22 27 27 27 28 35 46 71 82 54 64 76 73 74 70 57
32 31 30 30 29 29 29 28 32 39 47 51 28 24 21 18 18 17 18 18 18 18 27 33 20 19 20 24 27 27 27 27 29 38 45 45 44 61 64 66 68 71 69
27 26 25 25 28 32 42 43 45 43 46 51 60 43 29 24 25 31 62 19 19 20 21 32 22 20 20 23 27 29 28 28 27 30 35 37 37 41 42 53 60 67 68
24 20 21 26 30 32 34 38 42 48 55 57 61 68 61 40 39 43 44 30 23 22 35 27 30 24 22 23 27 31 30 29 29 28 31 31 38 38 45 47 48 52 67
18 16 15 18 19 22 26 31 33 38 42 43 53 61 74 73 71 53 45 48 44 41 55 56 24 25 26 24 24 28 32 30 30 29 30 30 31 33 36 45 48 52 57
15 15 15 15 15 16 16 17 14 15 21 30 37 41 43 54 75 80 81 74 54 52 54 50 43 25 32 28 27 25 29 32 32 33 32 31 32 34 34 37 43 48 53
15 15 14 14 14 16 17 18 12 9 10 10 10 11 13 17 26 34 43 66 75 82 70 56 55 56 29 32 29 26 26 29 32 33 34 35 34 36 36 38 42 58 49
16 15 14 13 14 15 17 18 15 13 11 12 15 15 15 13 10 8 7 12 35 59 80 93 77 54 45 37 36 24 26 26 29 33 33 35 36 38 39 41 44 44 55
17 17 16 15 15 16 18 20 20 18 18 17 17 18 19 19 17 15 13 10 6 10 37 72 92 95 66 42 42 41 31 27 27 29 35 35 35 36 40 42 45 44 45
17 18 19 19 20 21 23 24 22 21 21 22 21 20 20 20 19 18 16 13 11 8 5 25 56 68 85 77 58 45 47 45 27 27 30 35 37 35 37 41 45 48 47
19 23 27 28 30 33 32 28 29 29 28 27 26 23 22 21 21 20 17 14 12 10 6 5 9 35 46 63 75 62 47 46 41 36 28 28 37 39 38 39 44 49 50
25 28 31 33 34 35 39 38 37 35 34 31 29 26 25 22 20 17 16 13 11 7 5 4 5 5 21 44 65 74 58 59 41 41 34 33 30 35 41 44 45 45 50
35 39 40 42 43 43 41 39 38 36 34 31 24 19 16 14 12 9 7 6 5 4 2 2 2 4 5 15 34 49 74 100 82 50 44 38 41 34 34 39 46 48 48
45 44 44 44 43 41 40 39 37 34 27 18 13 10 8 6 6 6 6 6 6 5 4 2 2 2 2 5 9 32 42 70 96 99 84 56 43 52 44 37 45 51 54
46 49 51 49 47 42 34 32 26 19 12 9 6 5 5 5 6 6 8 10 10 10 8 6 4 2 2 2 5 9 18 40 87 92 96 77 65 54 59 58 66 57 64
50 51 52 46 35 29 24 18 12 8 6 6 7 8 10 11 11 12 13 15 14 13 14 11 7 4 3 3 3 5 10 16 30 71 100 99 99 86 73 66 78 84 73
55 54 40 32 27 21 12 8 7 8 10 10 11 12 14 15 17 20 22 24 27 30 28 28 26 20 17 7 6 5 5 8 15 29 54 98 100 88 94 92 80 97 100
59 46 35 31 28 22 13 9 10 10 12 9 10 15 18 18 21 25 25 18 14 15 25 35 33 32 30 27 23 14 14 9 8 12 20 47 80 96 100 95 85 85 99

GFSSE_700_rhum_171.txt.gz
RH
78 66 60 53 44 41 35 20 12 14 13 12 12 12 11 10 9 9 8 9 10 10 10 11 10 11 17 14 12 12 13 12 12 13 18 21 30 48 52 50 54 61 63
60 64 63 59 54 51 43 31 14 13 14 13 13 12 12 11 10 9 9 9 11 10 10 11 11 11 17 17 13 11 11 12 13 18 26 30 58 57 55 55 50 56 63
54 51 65 67 65 60 52 38 22 13 15 14 14 14 13 13 12 11 10 10 10 11 11 11 11 12 13 15 13 12 13 14 16 26 34 49 59 57 57 54 54 64 72
48 62 62 70 70 69 59 45 32 19 16 17 16 15 14 14 14 12 11 11 14 13 12 12 12 13 15 16 14 14 15 15 19 33 43 69 67 66 62 57 57 56 61
31 33 43 56 66 70 64 53 42 30 22 20 19 18 16 16 16 19 17 13 15 18 21 13 13 13 15 17 16 18 18 17 21 32 55 73 59 73 69 66 63 54 56
30 30 31 30 33 38 45 46 52 51 45 37 25 22 19 22 48 43 16 14 26 26 31 32 36 15 15 18 17 18 19 20 23 32 43 67 59 71 55 60 67 64 55
30 30 31 32 32 36 37 38 41 40 45 53 57 45 29 25 28 45 36 17 16 24 26 35 26 16 16 18 19 20 20 21 23 27 38 87 56 73 48 62 66 63 61
30 34 33 30 30 31 30 31 31 31 32 38 48 57 62 45 31 24 24 35 31 28 23 27 28 19 20 18 20 21 22 21 23 28 56 60 54 66 44 66 65 62 64
31 32 30 28 26 27 30 34 42 45 42 44 49 53 62 71 61 44 32 26 26 32 39 31 37 31 21 22 20 23 24 24 23 27 57 55 37 40 41 50 61 58 64
29 27 24 24 25 30 34 36 36 38 40 46 46 54 63 63 70 68 60 46 38 47 61 66 51 48 37 23 24 23 25 26 26 26 27 41 32 34 36 38 46 46 53
26 24 21 17 17 20 21 22 24 28 29 32 37 44 46 47 55 68 74 74 64 55 59 57 50 53 53 50 37 25 24 27 29 28 46 42 30 32 34 37 41 42 43
25 21 16 15 14 14 13 13 13 13 12 10 15 26 34 37 40 41 43 55 75 80 80 82 73 61 55 57 51 48 29 25 29 32 76 44 30 30 33 33 35 40 41
23 19 15 15 14 14 14 15 15 15 13 9 9 10 11 12 12 13 14 14 16 17 22 36 58 76 77 67 70 75 86 90 51 43 83 54 31 31 31 33 34 35 39
22 19 16 15 15 15 15 14 14 16 17 15 15 14 14 14 15 16 16 16 16 15 13 12 10 13 33 77 75 71 69 66 51 83 88 52 30 35 32 33 35 36 37
23 18 16 15 14 15 17 17 18 18 18 18 18 18 17 16 16 15 16 16 16 16 16 16 14 12 10 9 26 72 78 75 66 51 56 71 26 32 36 35 35 37 39
22 19 19 18 17 17 19 20 21 22 23 23 21 20 19 18 17 17 16 16 16 16 16 15 14 13 12 11 9 9 42 86 83 74 62 90 46 26 36 37 39 38 41
21 21 20 19 18 17 21 24 25 27 26 25 25 23 22 21 20 20 20 20 19 18 16 14 13 12 11 10 10 10 8 20 79 92 75 62 96 48 28 35 37 40 42
23 21 20 20 18 20 23 25 26 26 26 26 25 26 26 24 21 18 16 15 14 13 12 12 11 11 10 9 9 10 9 8 10 63 91 82 64 87 48 29 34 37 38
23 22 22 22 21 24 27 26 25 26 27 27 27 25 21 18 17 16 14 12 10 9 8 7 7 7 7 7 8 8 8 7 6 7 36 86 84 77 84 82 33 31 39
22 21 23 23 26 29 29 28 32 36 35 33 28 24 20 17 14 12 9 7 5 4 3 4 3 3 4 3 3 3 4 5 4 3 5 20 73 92 86 77 73 40 35
21 24 25 28 31 29 31 38 40 38 36 29 25 20 16 13 10 7 5 4 4 5 6 6 6 6 6 6 4 3 3 3 3 3 2 3 6 64 100 94 83 82 48
24 25 28 33 32 35 39 42 41 38 30 26 18 15 13 9 6 5 5 5 6 9 10 8 7 6 7 10 11 8 5 4 6 4 3 3 3 4 40 99 99 92 83
28 31 35 36 39 45 48 46 40 33 24 17 13 9 7 7 8 7 6 7 10 11 12 12 13 14 16 19 14 12 14 12 10 8 10 7 4 4 4 20 82 99 95
32 38 39 41 46 50 49 42 34 23 16 11 8 7 10 12 12 9 5 5 9 11 11 10 10 9 12 11 7 6 8 17 24 13 9 9 12 8 10 13 79 74 97
37 40 41 45 49 52 45 35 26 21 12 9 8 8 11 15 14 10 5 5 5 5 5 5 5 5 5 6 5 5 8 29 38 40 22 16 14 13 10 9 12 59 93
39 40 45 50 56 50 39 30 29 25 14 9 9 10 14 18 17 12 7 5 6 6 5 6 7 7 9 10 8 10 26 43 49 47 43 38 27 19 20 13 37 58 74